Weather in Kolychevskiy

Russia / Oryol Oblast     52°18′19″N   35°43′00″E
temp.,
°C
wind,
m/s
gust,
m/s
humid.,
%
clouds,
%
prec.,
mm/h
press.,
hPa
HPBL,
m
14 august, sun
sun1400:00+20ene4964100 0.0 1019187
03:00+19ene4106674 0.0 1018211
06:00+20e41162100 0.0 1018250
09:00+21e61067100 0.0 1018427
12:00+22e696883 0.0 1018559
15:00+25e565840 0.0 1018787
18:00+25ene586251 0.0 1017673
21:00+20ene5127192 0.0 1017285
15 august, mon
mon1500:00+18ene4126769 0.0 1017251
03:00+18ene4116466 0.0 1016214
06:00+17ene4116877 0.0 1016228
09:00+23e6115889 0.0 1015348
12:00+27e71042100 0.0 1015997
15:00+29e71042100 0.0 10141142
18:00+26ene5125198 0.0 1014381
21:00+24ene71751100 0.0 1014428
16 august, tue
tue1600:00+24e71746100 0.0 1014446
03:00+23e7164798 0.0 1013510
06:00+21e71653100 0.1 1013399
09:00+21e81748100 0.2 1014543
12:00+23ese61448100 0.0 1015500
15:00+29e81340100 0.0 10141450
18:00+24ene51248100 0.0 1014349
21:00+24e61343100 0.0 1014396
17 august, wed
wed1700:00+24ene61342100 0.0 1013379
03:00+22e6145596 0.3 1013389
06:00+21e51355100 0.1 1012323
09:00+23ese61553100 0.1 1013665
12:00+28ese61343100 0.1 10121623
15:00+29ene71046100 0.1 10111273
18:00+26e51250100 0.0 1011415
21:00+25e8183513 0.0 1010566
18 august, thu
thu1800:00+24e717337 0.0 1011503
03:00+22e615395 0.0 1011359
06:00+20e5134788 0.0 1011275
09:00+21e5115497 0.0 1012398
12:00+25e5949100 0.0 1012653
15:00+29e683648 0.0 10111454
18:00+27ese484763 0.0 1012381
21:00+22ene413558 0.0 1012266